| time (UTC) | temp C | wind direction | speed KPH | gust KPH | rain 1hr cm | rain 24hr cm | rain mn cm | humidity % | barometer mb |
| 20260504081545 | 6 | 0 | 0.0 | 0.0 | 0.00 | 0.00 | 0.00 | 60 | 1009.5 |
| 20260504044540 | 6 | 0 | 0.0 | 0.0 | 0.00 | 0.00 | 0.00 | 63 | 1009.7 |
| 20260504043043 | 6 | 0 | 0.0 | 0.0 | 0.00 | 0.00 | 0.00 | 63 | 1009.9 |
| 20260504041547 | 7 | 0 | 0.0 | 1.6 | 0.00 | 0.00 | 0.00 | 63 | 1009.9 |
| 20260504040107 | 8 | 0 | 0.0 | 9.7 | 0.00 | 0.00 | 0.00 | 59 | 1010.0 |
| 20260504034543 | 8 | 0 | 0.0 | 3.2 | 0.00 | 0.00 | 0.00 | 58 | 1010.1 |
| 20260504033045 | 9 | 0 | 0.0 | 19.3 | 0.00 | 0.00 | 0.00 | 55 | 1010.1 |
| 20260504031553 | 8 | 0 | 0.0 | 0.0 | 0.00 | 0.00 | 0.00 | 58 | 1010.2 |
| 20260504030044 | 8 | 0 | 0.0 | 0.0 | 0.00 | 0.00 | 0.00 | 60 | 1010.3 |
| 20260504024544 | 8 | 0 | 0.0 | 0.0 | 0.00 | 0.00 | 0.00 | 60 | 1010.3 |
| 20260504023042 | 9 | 0 | 0.0 | 0.0 | 0.00 | 0.00 | 0.00 | 57 | 1010.3 |
| 20260504021543 | 9 | 0 | 0.0 | 0.0 | 0.00 | 0.00 | 0.00 | 58 | 1010.2 |
| 20260504014543 | 9 | 0 | 0.0 | 0.0 | 0.00 | 0.00 | 0.00 | 59 | 1010.2 |
| 20260504013046 | 11 | 0 | 0.0 | 0.0 | 0.00 | 0.00 | 0.00 | 53 | 1010.3 |
| 20260504011543 | 12 | 0 | 0.0 | 0.0 | 0.00 | 0.00 | 0.00 | 44 | 1010.5 |
| 20260504010053 | 15 | 0 | 0.0 | 0.0 | 0.00 | 0.00 | 0.00 | 38 | 1010.6 |
| 20260504004543 | 15 | 0 | 1.6 | 9.7 | 0.00 | 0.00 | 0.00 | 34 | 1010.6 |
| 20260504003041 | 16 | 302 | 3.2 | 14.5 | 0.00 | 0.00 | 0.00 | 33 | 1010.7 |
| 20260504001549 | 16 | 292 | 1.6 | 12.9 | 0.00 | 0.00 | 0.00 | 36 | 1010.9 |
| 20260504000050 | 16 | 323 | 1.6 | 17.7 | 0.00 | 0.00 | 0.00 | 36 | 1010.9 |
| 20260503234601 | 16 | 285 | 3.2 | 14.5 | 0.00 | 0.00 | 0.00 | 39 | 1011.2 |
| 20260503233048 | 17 | 287 | 4.8 | 14.5 | 0.00 | 0.00 | 0.00 | 39 | 1011.3 |
| 20260503231542 | 18 | 286 | 3.2 | 12.9 | 0.00 | 0.00 | 0.00 | 38 | 1011.3 |
| 20260503230041 | 17 | 300 | 3.2 | 14.5 | 0.00 | 0.00 | 0.00 | 40 | 1011.4 |
| 20260503224543 | 18 | 325 | 4.8 | 16.1 | 0.00 | 0.00 | 0.00 | 37 | 1011.4 |
| 20260503223042 | 18 | 305 | 4.8 | 12.9 | 0.00 | 0.00 | 0.00 | 35 | 1011.7 |
| 20260503221555 | 18 | 0 | 6.4 | 16.1 | 0.00 | 0.00 | 0.00 | 37 | 1011.7 |
| 20260503220043 | 20 | 0 | 1.6 | 14.5 | 0.00 | 0.00 | 0.00 | 35 | 1011.9 |
| 20260503214538 | 18 | 301 | 1.6 | 16.1 | 0.00 | 0.00 | 0.00 | 37 | 1012.1 |
| 20260503213046 | 18 | 290 | 1.6 | 14.5 | 0.00 | 0.00 | 0.00 | 39 | 1012.5 |
| 20260503211546 | 17 | 178 | 3.2 | 16.1 | 0.00 | 0.00 | 0.00 | 33 | 1012.9 |
| 20260503210043 | 15 | 258 | 1.6 | 16.1 | 0.00 | 0.00 | 0.00 | 44 | 1013.2 |
| 20260503204544 | 12 | 212 | 9.7 | 27.4 | 0.00 | 0.00 | 0.00 | 54 | 1013.8 |
| 20260503203055 | 12 | 279 | 8.0 | 25.7 | 0.00 | 0.00 | 0.00 | 60 | 1014.0 |
| 20260503201549 | 15 | 245 | 9.7 | 22.5 | 0.00 | 0.00 | 0.00 | 45 | 1014.2 |
| 20260503200054 | 17 | 0 | 0.0 | 12.9 | 0.00 | 0.00 | 0.00 | 40 | 1013.9 |
| 20260503194552 | 17 | 212 | 4.8 | 14.5 | 0.00 | 0.00 | 0.00 | 38 | 1013.9 |
| 20260503193043 | 18 | 0 | 1.6 | 8.0 | 0.00 | 0.00 | 0.00 | 34 | 1014.1 |
| 20260503191552 | 19 | 341 | 0.0 | 12.9 | 0.00 | 0.00 | 0.00 | 36 | 1014.1 |
| 20260503190041 | 18 | 44 | 1.6 | 11.3 | 0.00 | 0.00 | 0.00 | 42 | 1014.2 |
| 20260503184548 | 16 | 0 | 0.0 | 9.7 | 0.00 | 0.00 | 0.00 | 38 | 1014.4 |
| 20260503183051 | 18 | 0 | 1.6 | 6.4 | 0.00 | 0.00 | 0.00 | 41 | 1014.5 |
| 20260503181547 | 16 | 0 | 4.8 | 12.9 | 0.00 | 0.00 | 0.00 | 44 | 1014.7 |
| 20260503180057 | 15 | 74 | 4.8 | 11.3 | 0.00 | 0.00 | 0.00 | 48 | 1015.0 |
| 20260503174543 | 15 | 113 | 1.6 | 12.9 | 0.00 | 0.00 | 0.00 | 46 | 1015.4 |
| 20260503173041 | 16 | 118 | 0.0 | 14.5 | 0.00 | 0.00 | 0.00 | 45 | 1015.3 |
| 20260503171547 | 15 | 0 | 0.0 | 8.0 | 0.00 | 0.00 | 0.00 | 47 | 1015.3 |